Location: Pl�tzky
(52.0521°N, 11.8020°E)
Time: 08:40:38
(UTC+00:00)

USA 229 - Pass Details

Date: 29 February 2020
Orbit: 986 x 1226 km, 63.4° (Epoch: 26 March)

Event Time Altitude Azimuth Distance (km) Brightness Sun altitude
Rises 00:00:00 0° 314° (NW) 3,930 7.0 -45.2°
Reaches altitude 10° 00:02:38 10° 312° (NW) 3,003 6.2 -45.2°
Enters shadow 00:02:47 11° 312° (NW) 2,950 6.2 -45.2°
